Temperature
13 11 11 11 12 12 13 12 12 13 13 13 12 12 13 15 14 14 14 14 13 13 12 12 12 11 11 11 11 11 11 11 11 11 11 11 11 11 11 11 11 11 11 11
12 11 11 12 13 12 12 12 12 13 13 13 12 12 13 14 14 14 14 14 13 13 12 12 11 11 11 11 11 11 11 11 11 11 11 11 11 11 11 11 11 11 11 11
11 11 12 12 12 12 12 11 11 11 12 13 12 12 13 14 14 14 14 14 13 13 12 12 11 11 11 10 10 10 10 10 10 10 10 10 10 10 10 10 10 10 10 11
11 12 12 11 11 12 11 11 11 11 10 10 12 10 12 13 13 13 14 14 13 13 12 12 11 11 10 10 10 10 10 10 10 10 10 10 10 10 10 10 10 10 10 10
11 11 11 11 11 11 10 11 11 10 10 10 11 10 11 13 13 13 13 14 13 13 12 12 11 11 10 10 10 10 10 10 9 9 9 9 9 9 9 9 9 9 9 10
11 11 11 10 11 11 11 10 11 10 9 9 11 11 11 12 13 13 13 13 13 13 12 12 11 10 10 10 10 10 9 9 9 9 9 9 9 9 9 9 9 9 9 9
11 11 11 10 10 11 10 9 9 9 9 10 12 11 11 13 13 13 13 13 12 12 12 11 11 10 10 9 9 9 9 9 9 9 9 9 9 8 8 8 8 9 9 9
10 10 10 10 10 9 10 10 8 9 9 10 11 10 11 13 13 13 13 12 12 12 11 11 10 10 10 9 9 9 9 9 9 9 9 8 8 8 8 8 8 8 8 8
9 9 10 10 10 10 10 9 10 8 9 9 10 12 13 12 12 12 12 12 11 11 11 10 10 10 9 9 9 9 9 9 8 8 8 8 8 8 8 8 8 8 8 8
9 8 10 10 9 9 9 9 8 8 8 9 11 12 11 11 11 11 10 11 11 11 10 10 10 10 9 9 9 8 8 8 8 8 8 8 8 7 7 7 7 7 7 7
9 8 9 9 9 9 8 9 8 8 8 8 9 10 12 11 11 10 11 11 11 10 10 10 9 9 9 9 9 8 8 8 8 8 8 7 7 7 7 7 7 7 7 7
9 8 7 9 9 9 9 9 9 7 8 8 7 9 12 11 11 11 11 11 11 10 10 9 9 9 9 8 8 8 8 8 8 8 7 7 7 7 7 7 7 7 7 7
8 7 6 8 8 8 8 9 9 8 7 6 7 8 11 11 11 11 11 10 10 10 9 9 9 9 8 8 8 8 8 8 8 7 7 7 7 7 7 7 6 7 6 6
8 6 6 7 8 8 7 8 8 7 5 6 7 9 10 10 10 10 10 10 10 9 9 9 8 8 8 8 8 8 8 7 7 7 7 7 7 7 7 6 6 6 6 6
7 6 6 7 8 8 7 7 7 6 6 6 7 8 9 9 9 10 10 10 9 9 9 8 8 8 8 8 8 8 7 7 7 7 7 7 6 6 6 6 6 6 6 6
7 6 6 6 7 7 7 7 7 7 7 7 7 8 9 10 10 9 9 9 8 8 8 8 8 7 7 7 7 7 7 7 7 7 6 6 6 6 6 6 6 6 6 6
6 5 5 5 7 6 5 7 7 7 7 7 7 7 8 8 8 8 8 8 8 8 7 7 7 7 7 7 7 6 6 6 6 6 6 6 6 6 6 6 6 6 6 5
5 5 4 4 5 4 7 9 9 8 7 7 7 8 8 8 8 8 8 7 7 7 7 7 7 6 7 7 6 6 6 6 6 6 6 6 5 5 6 5 6 6 5 5
6 5 4 4 4 5 8 8 8 7 7 7 7 7 8 8 7 7 7 7 6 6 6 6 6 6 6 6 6 6 6 6 6 5 5 5 5 5 5 5 5 5 5 5
5 4 4 4 4 4 8 7 8 7 6 7 7 7 7 7 5 6 7 6 6 6 5 5 5 6 6 6 6 6 5 5 5 5 5 5 5 5 5 5 5 5 4 5
3 3 3 3 4 5 7 7 7 5 6 7 7 7 7 6 5 6 6 6 5 5 5 5 5 5 5 5 5 5 5 5 5 4 4 5 5 4 4 4 4 4 4 4
3 3 3 3 3 4 7 6 5 6 7 7 7 6 6 6 6 5 5 5 5 5 4 4 4 4 4 4 4 4 4 4 4 4 4 4 4 4 4 4 4 4 4 3
5 5 5 4 5 7 7 7 7 7 6 6 6 6 5 5 5 5 4 4 4 4 4 4 4 4 4 4 4 4 4 4 4 4 4 4 4 4 4 3 3 3 3 3
5 6 5 4 5 7 7 7 7 6 6 5 5 5 5 4 4 4 4 4 4 4 4 3 3 3 3 3 3 3 3 3 3 3 3 3 3 3 3 3 3 3 3 3
5 4 4 4 5 6 7 7 6 6 5 5 5 4 4 4 4 3 3 3 3 3 3 3 3 3 3 3 3 3 3 3 3 3 3 3 3 3 3 3 3 3 3 3
4 4 4 4 5 5 5 6 5 5 4 4 4 4 4 3 3 3 3 3 3 3 3 3 2 2 2 2 2 2 2 2 2 2 2 2 2 2 2 2 2 2 2 2
Wind_Speed
1 1 3 4 4 4 3 3 3 3 2 3 5 7 7 5 5 5 5 4 4 4 4 5 4 4 3 2 2 1 1 1 1 1 0 0 1 1 1 1 1 1 2 3
1 2 3 3 2 3 3 3 4 3 3 4 6 9 8 6 5 5 5 5 4 4 4 4 4 4 3 2 2 1 1 1 0 0 1 0 1 1 1 1 1 1 1 2
3 2 3 3 3 4 3 3 4 5 8 6 6 6 6 5 5 5 5 4 4 4 4 4 4 3 3 3 2 1 1 1 0 0 1 1 1 1 1 1 1 2 2 2
2 2 2 3 3 5 2 4 5 6 6 3 3 4 5 5 7 7 7 5 4 3 3 3 3 4 3 3 3 2 2 2 1 1 1 1 2 2 2 1 2 2 2 2
2 3 3 3 4 5 3 4 5 6 5 5 5 4 6 5 6 7 6 6 5 5 4 3 3 3 3 4 3 3 2 2 2 1 2 2 2 2 2 2 2 2 2 2
1 1 2 2 2 2 4 5 6 5 2 4 4 4 5 2 4 4 4 4 3 3 3 3 3 3 2 3 3 3 3 3 3 3 3 3 3 3 3 3 3 2 2 2
1 3 2 1 3 1 3 4 2 1 2 4 2 3 6 1 3 3 2 2 3 2 2 2 3 3 3 3 4 4 4 4 4 4 4 4 5 4 4 4 3 3 2 2
3 1 2 0 2 3 3 2 1 2 3 3 2 5 4 3 5 5 3 2 2 1 1 1 2 4 4 4 4 4 5 4 4 4 4 4 5 4 4 4 4 3 3 3
4 2 2 0 2 3 3 1 2 2 4 5 6 5 2 4 5 3 2 1 1 0 0 1 2 3 5 5 5 5 5 5 5 5 4 5 5 5 5 4 3 3 3 3
4 4 2 2 2 4 3 4 1 2 3 4 6 4 2 3 3 2 1 0 0 1 1 2 2 3 4 5 5 5 6 6 5 5 4 4 5 5 4 4 4 4 4 3
3 4 3 3 5 4 4 3 3 3 3 3 5 4 2 3 4 2 1 1 1 2 2 2 3 3 3 4 5 5 5 5 5 5 5 4 4 5 5 5 5 4 4 4
1 3 5 4 1 1 3 4 4 3 4 4 4 6 2 5 4 2 1 1 1 2 2 2 3 3 3 3 4 5 5 5 5 5 5 5 5 5 5 5 5 5 5 5
2 3 5 3 1 1 3 5 5 4 3 4 5 6 1 2 0 1 2 2 2 2 3 2 2 3 3 4 4 5 5 6 5 5 5 5 5 5 6 6 5 5 5 5
2 4 6 7 3 2 5 7 7 6 5 6 9 11 7 5 5 4 4 3 3 3 3 3 3 4 4 4 4 5 5 5 6 6 6 6 6 6 6 5 5 5 5 5
3 5 8 12 12 11 13 13 11 13 12 11 11 12 12 8 7 7 5 4 4 5 4 4 4 5 4 4 4 5 5 5 5 6 7 7 7 6 5 5 5 5 5 5
4 6 8 10 11 13 16 17 16 16 16 18 17 17 12 8 5 5 6 4 5 5 5 6 6 5 5 5 5 5 5 5 5 6 7 7 6 6 6 6 5 5 5 5
5 4 5 7 7 9 11 12 14 10 10 11 14 11 6 5 5 5 5 4 5 5 6 6 6 6 6 6 5 6 6 5 5 6 6 6 6 6 6 6 6 6 6 6
7 5 4 5 5 9 7 1 3 7 7 7 7 6 5 5 5 4 3 4 5 6 7 7 7 7 6 5 5 5 5 5 5 6 6 6 6 6 6 6 7 7 6 6
9 7 5 4 6 10 8 4 4 4 5 5 7 6 5 5 5 4 2 3 5 6 7 7 7 7 6 6 5 5 5 5 5 6 6 6 6 6 6 7 7 6 6 6
5 7 7 6 6 7 4 1 1 1 4 1 2 3 4 3 4 5 5 6 7 7 7 7 7 7 7 6 4 4 6 6 7 7 7 6 6 6 7 7 7 6 6 6
4 6 10 11 9 9 5 2 3 3 4 2 1 2 3 4 6 7 7 7 7 8 8 8 8 7 7 6 5 6 6 7 7 6 5 6 6 7 7 6 5 5 5 5
8 7 8 7 9 10 3 4 4 4 2 3 3 4 5 7 8 8 8 8 8 8 9 8 7 7 7 6 6 7 8 7 6 5 6 6 6 6 5 5 5 5 5 5
8 8 5 8 9 4 3 3 4 3 4 5 5 6 7 8 9 8 9 9 8 9 8 7 7 8 7 6 6 8 8 6 5 5 6 6 6 6 6 6 6 5 6 6
7 6 6 8 10 8 8 8 7 5 6 6 6 7 8 10 10 10 9 9 8 8 8 7 7 8 8 7 7 7 7 6 5 6 7 6 6 6 6 6 6 6 6 6
8 5 8 12 12 10 10 8 6 6 6 7 8 8 9 10 10 10 9 9 8 8 7 7 7 8 9 8 8 7 6 6 6 7 6 6 6 6 6 6 6 7 7 8
11 12 12 13 10 9 10 8 8 8 8 8 9 9 8 9 10 10 9 8 8 8 8 8 8 8 9 8 8 7 7 6 7 6 6 5 5 5 5 5 5 7 8 9
Wind_Direction
46 29 32 17 359 348 346 336 311 319 29 321 269 268 266 242 222 216 206 195 189 178 149 132 128 130 127 118 107 94 78 60 56 8 295 276 275 289 308 347 359 333 310 302
63 45 20 347 330 321 300 298 313 354 10 307 279 274 261 231 215 214 202 192 179 166 152 139 136 138 148 151 141 143 118 63 54 306 304 262 276 267 252 288 334 311 315 302
32 37 358 332 334 332 345 356 358 339 320 271 266 276 222 201 205 205 201 188 179 170 165 157 157 161 170 173 169 184 176 192 179 21 353 333 310 302 294 300 299 302 310 313
34 40 345 326 338 344 350 28 343 320 318 304 302 292 255 197 195 198 193 183 181 181 172 168 169 174 176 176 162 175 203 201 198 179 212 254 254 258 262 252 251 269 267 266
23 33 347 335 356 353 337 334 296 289 290 290 249 242 271 191 199 195 181 176 174 174 178 176 169 177 171 159 159 182 211 212 197 203 222 234 264 269 278 279 272 275 265 249
219 104 352 344 335 293 297 288 266 254 273 272 227 214 273 209 187 167 155 148 143 149 164 158 150 149 161 156 160 187 212 220 203 209 224 226 240 257 271 270 264 267 270 262
220 166 146 272 297 257 302 330 339 305 239 244 172 224 254 203 103 117 115 118 116 118 147 155 158 166 181 184 186 198 213 223 212 212 224 228 229 234 245 257 256 262 268 266
322 264 138 95 342 327 310 318 332 292 295 309 253 236 237 122 93 90 88 85 106 98 110 178 202 189 191 198 196 203 217 227 217 218 228 231 231 230 235 241 247 248 248 253
332 313 114 80 324 309 301 279 355 312 288 277 255 229 176 122 112 113 119 109 145 81 89 235 242 214 200 204 205 208 216 223 221 223 230 232 234 233 234 234 240 246 249 254
326 297 237 154 222 237 280 315 277 238 283 282 280 251 218 161 157 135 115 136 319 321 297 267 245 235 217 207 207 207 213 220 221 218 223 234 233 232 234 230 236 239 243 247
295 282 262 202 217 211 202 234 239 258 259 262 291 294 28 102 117 120 171 253 287 293 288 282 269 251 234 215 208 212 214 219 218 215 220 229 236 234 228 228 231 233 239 241
336 297 273 252 201 335 251 241 219 230 254 240 264 276 48 85 92 90 17 322 324 335 318 301 289 276 260 238 224 217 217 222 223 218 217 222 231 235 231 231 229 228 235 239
329 268 289 255 225 203 262 253 258 269 285 251 242 261 161 124 167 317 347 341 334 328 315 307 299 285 274 259 242 228 221 221 220 215 219 225 228 234 237 233 228 226 229 235
288 254 237 254 288 297 262 252 238 234 232 246 240 258 272 283 300 317 327 324 320 312 300 296 285 274 269 265 255 243 234 224 217 213 218 226 227 231 236 233 227 223 223 228
236 257 260 269 280 278 267 260 243 233 234 243 256 263 273 292 305 309 306 311 314 307 304 299 291 282 273 270 265 254 245 234 220 216 220 226 228 227 229 227 224 223 223 226
237 266 283 276 265 265 267 258 249 246 243 248 260 270 274 282 291 299 307 305 302 307 308 303 294 288 280 274 268 262 253 242 226 223 225 225 225 223 225 224 222 221 220 221
227 246 275 273 283 295 269 250 234 231 229 232 247 257 286 302 311 312 312 309 303 309 310 306 301 292 282 274 268 264 252 245 235 231 231 227 223 225 226 223 220 221 221 220
231 227 251 277 290 252 247 244 215 232 244 234 251 277 300 302 304 304 313 318 317 315 309 305 300 294 285 277 271 267 258 245 238 237 234 229 225 226 225 222 223 223 221 220
219 218 235 250 263 272 269 238 203 223 262 236 243 269 293 324 327 308 331 338 311 302 297 295 294 292 286 280 269 266 263 250 242 241 239 234 225 224 224 226 227 223 221 223
221 218 228 234 247 253 262 144 80 105 261 250 217 270 297 343 308 288 325 321 308 304 298 296 298 298 291 280 269 266 262 254 249 244 237 232 225 222 226 228 226 222 218 218
186 209 222 234 246 260 265 143 112 194 249 10 352 318 312 279 264 285 301 300 296 293 292 290 291 292 287 283 273 262 260 258 255 246 236 230 224 223 227 227 222 218 214 207
195 200 210 215 233 250 195 148 199 245 323 336 323 307 295 286 289 294 293 290 291 290 288 286 287 287 286 282 273 267 262 259 252 243 240 233 226 224 223 218 220 215 208 205
210 211 217 216 233 266 187 222 254 278 292 296 295 294 290 286 284 286 286 286 286 284 285 283 281 285 284 277 270 271 270 264 252 243 242 236 228 220 212 212 215 215 210 209
243 243 259 266 265 273 272 274 272 269 277 284 286 291 292 289 288 287 285 285 285 284 283 280 279 282 284 279 272 267 271 265 251 248 245 235 226 222 214 211 209 212 213 210
257 246 255 264 274 285 272 271 279 290 289 287 285 282 283 285 284 285 286 284 283 284 281 276 273 277 280 280 276 271 267 259 253 250 245 237 224 218 217 214 214 215 218 212
247 250 254 263 268 270 279 282 283 281 280 280 281 280 278 277 281 283 282 280 279 281 280 278 274 274 277 277 275 271 263 252 245 249 243 234 225 220 217 216 227 225 221 218
Height
1493 1495 1497 1495 1493 1492 1491 1492 1492 1489 1486 1488 1488 1485 1481 1480 1480 1481 1482 1484 1485 1486 1488 1488 1488 1489 1489 1490 1491 1491 1492 1493 1493 1493 1493 1493 1495 1496 1496 1497 1497 1498 1498 1499
1495 1498 1497 1494 1493 1492 1493 1494 1492 1488 1487 1488 1486 1483 1478 1476 1477 1478 1479 1481 1483 1484 1486 1486 1487 1487 1487 1488 1489 1489 1490 1491 1491 1491 1491 1491 1492 1493 1493 1494 1494 1495 1495 1496
1498 1500 1497 1495 1494 1493 1493 1495 1495 1495 1491 1486 1487 1483 1475 1473 1474 1476 1477 1479 1481 1482 1484 1485 1485 1485 1486 1486 1487 1487 1488 1488 1488 1489 1489 1489 1490 1490 1490 1491 1491 1492 1492 1493
1498 1498 1498 1497 1496 1495 1497 1496 1496 1496 1497 1495 1488 1495 1477 1472 1472 1473 1475 1477 1479 1480 1482 1483 1483 1483 1484 1484 1485 1485 1485 1485 1486 1486 1486 1486 1486 1487 1487 1488 1488 1488 1489 1489
1500 1500 1500 1499 1499 1498 1498 1496 1497 1496 1496 1497 1489 1493 1482 1470 1472 1471 1472 1474 1476 1478 1480 1480 1481 1481 1482 1482 1482 1483 1483 1483 1483 1483 1483 1483 1484 1484 1484 1485 1485 1485 1485 1486
1500 1500 1501 1500 1499 1499 1498 1496 1494 1494 1497 1501 1486 1489 1483 1472 1469 1469 1470 1472 1474 1476 1477 1478 1479 1479 1479 1480 1480 1480 1480 1480 1480 1480 1480 1480 1481 1481 1481 1481 1481 1481 1482 1482
1499 1500 1500 1501 1500 1498 1498 1502 1503 1502 1502 1495 1482 1485 1481 1468 1465 1467 1469 1471 1473 1474 1475 1476 1477 1477 1477 1477 1477 1477 1477 1477 1477 1477 1477 1477 1477 1477 1478 1478 1478 1477 1478 1478
1504 1503 1500 1501 1501 1502 1500 1501 1509 1509 1501 1492 1485 1486 1474 1465 1465 1467 1469 1471 1472 1473 1474 1474 1475 1475 1475 1475 1474 1474 1474 1474 1474 1474 1474 1474 1474 1474 1474 1474 1474 1474 1473 1474
1506 1504 1501 1501 1501 1502 1500 1501 1501 1506 1502 1501 1487 1472 1467 1465 1467 1468 1470 1471 1471 1472 1472 1473 1473 1473 1472 1472 1472 1472 1471 1471 1471 1470 1470 1470 1470 1470 1470 1470 1470 1470 1469 1470
1507 1508 1500 1501 1502 1502 1502 1501 1504 1506 1506 1500 1482 1472 1473 1468 1468 1469 1469 1470 1470 1471 1470 1470 1470 1470 1469 1469 1469 1469 1468 1468 1468 1467 1467 1466 1466 1466 1466 1466 1466 1466 1466 1466
1507 1509 1503 1501 1500 1499 1502 1503 1502 1502 1501 1503 1496 1482 1466 1466 1466 1468 1469 1469 1469 1469 1469 1468 1468 1467 1466 1466 1466 1465 1465 1465 1464 1464 1463 1463 1462 1462 1462 1461 1461 1461 1461 1461
1507 1509 1507 1498 1495 1495 1496 1496 1499 1506 1502 1498 1500 1488 1465 1465 1465 1466 1467 1468 1467 1467 1467 1466 1465 1464 1464 1463 1463 1462 1462 1461 1461 1460 1460 1459 1458 1458 1457 1457 1457 1457 1457 1457
1509 1510 1510 1500 1501 1499 1498 1495 1496 1498 1501 1501 1500 1485 1466 1465 1466 1466 1466 1466 1465 1465 1464 1464 1463 1462 1461 1460 1459 1459 1458 1457 1457 1456 1456 1455 1454 1454 1453 1453 1453 1453 1453 1453
1509 1509 1509 1503 1496 1497 1497 1495 1495 1499 1504 1498 1487 1476 1467 1465 1465 1465 1465 1464 1464 1463 1462 1461 1460 1459 1458 1457 1456 1455 1454 1453 1453 1452 1451 1450 1450 1449 1449 1449 1448 1448 1448 1448
1508 1508 1502 1497 1493 1493 1492 1490 1489 1492 1491 1490 1478 1471 1465 1465 1464 1463 1463 1462 1461 1460 1459 1458 1457 1456 1455 1453 1452 1451 1450 1449 1448 1447 1446 1445 1445 1445 1444 1444 1444 1444 1444 1444
1504 1505 1501 1497 1490 1488 1485 1480 1480 1479 1478 1476 1472 1468 1462 1462 1461 1460 1460 1459 1458 1457 1456 1455 1454 1452 1451 1449 1448 1447 1445 1444 1444 1442 1441 1440 1440 1440 1440 1439 1439 1439 1439 1439
1502 1503 1502 1497 1487 1486 1482 1469 1469 1468 1465 1466 1467 1463 1459 1459 1459 1458 1457 1456 1456 1455 1454 1452 1450 1448 1446 1445 1443 1442 1440 1440 1438 1437 1436 1435 1435 1435 1435 1435 1434 1434 1434 1434
1497 1500 1501 1497 1493 1492 1468 1458 1458 1459 1459 1459 1458 1457 1457 1457 1456 1455 1455 1454 1453 1452 1450 1448 1446 1444 1442 1440 1439 1437 1436 1434 1433 1432 1431 1430 1430 1429 1429 1429 1429 1429 1429 1429
1490 1495 1498 1496 1490 1476 1461 1457 1457 1458 1457 1454 1454 1455 1455 1454 1453 1452 1452 1451 1450 1449 1447 1445 1443 1440 1438 1435 1434 1432 1430 1429 1428 1427 1426 1425 1425 1424 1424 1423 1423 1424 1424 1424
1486 1489 1494 1491 1488 1479 1458 1455 1453 1456 1457 1451 1451 1452 1452 1452 1455 1451 1449 1448 1447 1445 1443 1440 1438 1435 1433 1431 1429 1427 1425 1424 1422 1422 1421 1420 1420 1419 1418 1418 1418 1418 1418 1418
1488 1489 1489 1486 1481 1467 1454 1453 1454 1461 1456 1450 1449 1450 1450 1450 1451 1448 1446 1444 1442 1440 1438 1435 1433 1430 1428 1426 1424 1422 1420 1418 1417 1416 1415 1415 1414 1414 1413 1413 1413 1413 1413 1413
1477 1480 1480 1478 1477 1466 1452 1453 1455 1452 1449 1448 1448 1447 1447 1446 1445 1443 1441 1439 1437 1434 1432 1430 1427 1424 1422 1421 1419 1416 1414 1413 1412 1411 1410 1409 1408 1408 1408 1408 1408 1408 1408 1408
1465 1464 1463 1462 1457 1449 1448 1448 1447 1447 1446 1445 1445 1444 1443 1441 1439 1437 1435 1433 1431 1429 1426 1424 1422 1419 1417 1415 1413 1411 1409 1408 1406 1405 1404 1403 1402 1402 1402 1402 1402 1402 1402 1402
1457 1456 1456 1453 1447 1445 1444 1443 1443 1443 1442 1441 1440 1440 1438 1436 1434 1432 1429 1427 1425 1423 1421 1418 1416 1413 1411 1409 1408 1405 1404 1402 1400 1399 1398 1397 1397 1396 1396 1396 1396 1397 1397 1397
1452 1452 1451 1447 1443 1442 1439 1439 1439 1438 1437 1436 1435 1434 1432 1430 1428 1426 1423 1421 1419 1417 1415 1412 1410 1407 1405 1403 1401 1399 1398 1396 1394 1393 1392 1391 1391 1391 1390 1390 1391 1391 1391 1392
1446 1447 1446 1441 1438 1438 1434 1434 1434 1432 1431 1430 1428 1426 1425 1424 1422 1419 1417 1415 1413 1411 1408 1406 1404 1401 1399 1397 1395 1393 1392 1390 1388 1387 1386 1386 1385 1385 1385 1385 1385 1385 1387 1387